Flag for U.S.A. Weather past 2 weeks in Davenport, Iowa, U.S.A.

Now
67 °F

Passing clouds.


Feels Like: 67 °F
Forecast: 61 / 76 °F
Wind: 3 mph from North

Location: Davenport Municipal Airport

Current Time: Jun 30, 2015 at 11:55:41 PM

Latest Report: Jun 30, 2015 at 10:52 PM


Visibility: 9 mi

Pressure: 29.90 "Hg

Humidity: 85%

Dew point: 62 °F

Location of DavenportLocation

Historic Weather in Davenport — Graph

°F

Davenport temperature yesterday

Maximum temperature yesterday: 79 °F (at 3:52 PM)
Minimum temperature yesterday: 58 °F (at 2:59 AM)
Average temperature yesterday: 67 °F

Past Weeks' High & Low Weather Summary

 TemperatureHumidityPressure
High84 °F (Jun 20, 4:52 PM)97% (Jun 21, 5:52 AM)30.18 "Hg (Jun 21, 5:52 AM)
Low56 °F (Jun 17, 6:52 AM)44% (Jun 19, 10:52 AM)29.71 "Hg (Jun 22, 6:52 PM)
Average70 °F78%29.95 "Hg
* Reported Jun 15 9:52 PM — Jun 30 9:52 PM, Davenport, Weather by CustomWeather, © 2015

Note: Actual official high and low records may vary slightly from our data, if they occured in-between our weather recording intervals... More about our weather records

Advertising

Davenport weather history for previous 24 hours

 ConditionsComfort  
Time TempWeatherWind HumidityBarometerVisibility
9:52 PM
Tue, Jun 30
67 °FClear.6 mph85%29.89 "Hg9 mi
8:52 PM68 °FPartly sunny.5 mph84%29.87 "Hg9 mi
7:52 PM73 °FScattered clouds.7 mph71%29.85 "Hg8 mi
6:52 PM76 °FSunny.6 mph67%29.85 "Hg9 mi
5:52 PM79 °FSunny.8 mph58%29.84 "Hg9 mi
4:52 PM80 °FPassing clouds.7 mph58%29.84 "Hg9 mi
3:52 PM81 °FPassing clouds.7 mph56%29.84 "Hg9 mi
2:52 PM79 °FScattered clouds.7 mph56%29.85 "Hg9 mi
1:52 PM79 °FSunny.6 mph58%29.84 "Hg9 mi
12:52 PM78 °FSunny.10 mph60%29.85 "Hg10 mi
11:52 AM76 °FSunny.7 mph64%29.85 "Hg10 mi
10:52 AM75 °FSunny.7 mph64%29.86 "Hg10 mi
9:52 AM73 °FSunny.8 mph66%29.86 "Hg10 mi
8:52 AM72 °FSunny.7 mph66%29.85 "Hg10 mi
7:52 AM67 °FSunny.5 mph85%29.85 "Hg9 mi
6:52 AM63 °FFog.6 mph93%29.84 "Hg4 mi
5:52 AM62 °FFog.5 mph93%29.83 "Hg2 mi
4:52 AM61 °FFog.5 mph93%29.81 "Hg4 mi
3:52 AM61 °FFog.3 mph93%29.80 "Hg5 mi
2:52 AM62 °FClear.6 mph93%29.80 "Hg8 mi
1:52 AM64 °FPassing clouds.6 mph90%29.81 "Hg9 mi
12:52 AM65 °FPassing clouds.No wind94%29.80 "Hg10 mi
11:52 PM
Mon, Jun 29
65 °FOvercast.6 mph94%29.83 "Hg9 mi
Weather by CustomWeather, © 2015

See weather overviewHow to use our weather pages